Time,TemperatureF,DewpointF,PressureIn,WindDirection,WindDirectionDegrees,WindSpeedMPH,WindSpeedGustMPH,Humidity,HourlyPrecipIn,Conditions,Clouds,dailyrainin,SolarRadiationWatts/m^2,SoftwareType,DateUTC
2013-01-15 00:12:00,51.0,51.0,-100.00,SSE,159,3.0,11.0,99,0.00,,,0.50,0.000000,,2013-01-15 05:12:00,
2013-01-15 00:22:00,51.0,51.0,-100.00,SSE,159,3.0,11.0,99,0.00,,,0.50,0.000000,,2013-01-15 05:22:00,
2013-01-15 00:33:00,51.0,51.0,-100.00,SSE,159,3.0,11.0,99,0.00,,,0.50,0.000000,,2013-01-15 05:33:00,
2013-01-15 00:42:00,51.0,51.0,-100.00,SSE,159,3.0,11.0,99,0.00,,,0.50,0.000000,,2013-01-15 05:42:00,
2013-01-15 00:52:00,49.0,48.0,-100.00,SSE,150,3.0,13.0,98,0.00,,,0.50,0.000000,,2013-01-15 05:52:00,
2013-01-15 01:22:00,49.0,48.0,-100.00,SSE,150,3.0,13.0,98,0.00,,,0.50,0.000000,,2013-01-15 06:22:00,
2013-01-15 01:33:00,49.0,48.0,-100.00,SSE,150,3.0,13.0,98,0.00,,,0.50,0.000000,,2013-01-15 06:33:00,
2013-01-15 01:43:00,49.0,48.0,-100.00,SSE,150,3.0,13.0,98,0.00,,,0.50,0.000000,,2013-01-15 06:43:00,
2013-01-15 01:52:00,45.0,44.0,-100.00,South,171,4.0,11.0,98,0.00,,,0.50,0.000000,,2013-01-15 06:52:00,
2013-01-15 02:12:00,45.0,44.0,-100.00,South,171,4.0,11.0,98,0.00,,,0.50,0.000000,,2013-01-15 07:12:00,
2013-01-15 02:22:00,45.0,44.0,-100.00,South,171,4.0,11.0,98,0.00,,,0.50,0.000000,,2013-01-15 07:22:00,
2013-01-15 02:33:00,45.0,44.0,-100.00,South,171,4.0,11.0,98,0.00,,,0.50,0.000000,,2013-01-15 07:33:00,
2013-01-15 02:42:00,45.0,44.0,-100.00,South,171,4.0,11.0,98,0.00,,,0.50,0.000000,,2013-01-15 07:42:00,
2013-01-15 02:52:00,45.0,44.0,-100.00,NE,55,3.0,15.0,98,0.00,,,0.50,0.000000,,2013-01-15 07:52:00,
2013-01-15 03:22:00,45.0,44.0,-100.00,NE,55,3.0,15.0,98,0.00,,,0.50,0.000000,,2013-01-15 08:22:00,
2013-01-15 03:33:00,45.0,44.0,-100.00,NE,55,3.0,15.0,98,0.00,,,0.50,0.000000,,2013-01-15 08:33:00,
2013-01-15 03:43:00,45.0,44.0,-100.00,NE,55,3.0,15.0,98,0.00,,,0.50,0.000000,,2013-01-15 08:43:00,
2013-01-15 03:52:00,43.0,42.0,-100.00,SW,227,3.0,14.0,98,0.00,,,0.50,0.000000,,2013-01-15 08:52:00,
2013-01-15 04:22:00,43.0,42.0,-100.00,SW,227,3.0,14.0,98,0.00,,,0.50,0.000000,,2013-01-15 09:22:00,
2013-01-15 04:33:00,43.0,42.0,-100.00,SW,227,3.0,14.0,98,0.00,,,0.50,0.000000,,2013-01-15 09:33:00,
2013-01-15 04:42:00,43.0,42.0,-100.00,SW,227,3.0,14.0,98,0.00,,,0.50,0.000000,,2013-01-15 09:42:00,
2013-01-15 04:52:00,43.0,42.0,-100.00,SW,225,1.0,10.0,98,0.00,,,0.50,0.000000,,2013-01-15 09:52:00,
2013-01-15 05:12:00,43.0,42.0,-100.00,SW,225,1.0,10.0,98,0.00,,,0.50,0.000000,,2013-01-15 10:12:00,
2013-01-15 05:22:00,43.0,42.0,-100.00,SW,225,1.0,10.0,98,0.00,,,0.50,0.000000,,2013-01-15 10:22:00,
2013-01-15 05:32:00,43.0,42.0,-100.00,SW,225,1.0,10.0,98,0.00,,,0.50,0.000000,,2013-01-15 10:32:00,
2013-01-15 05:42:00,43.0,42.0,-100.00,SW,225,1.0,10.0,98,0.00,,,0.50,0.000000,,2013-01-15 10:42:00,
2013-01-15 05:52:00,43.0,42.0,-100.00,SW,229,3.0,8.0,98,0.00,,,0.50,0.000000,,2013-01-15 10:52:00,
2013-01-15 06:12:00,43.0,42.0,-100.00,SW,229,3.0,8.0,98,0.00,,,0.50,0.000000,,2013-01-15 11:12:00,
2013-01-15 06:23:00,43.0,42.0,-100.00,SW,229,3.0,8.0,98,0.00,,,0.50,0.000000,,2013-01-15 11:23:00,
2013-01-15 06:33:00,43.0,42.0,-100.00,SW,229,3.0,8.0,98,0.00,,,0.50,0.000000,,2013-01-15 11:33:00,
2013-01-15 06:43:00,43.0,42.0,-100.00,SW,229,3.0,8.0,98,0.00,,,0.50,0.000000,,2013-01-15 11:43:00,
2013-01-15 06:52:00,42.0,41.0,-100.00,SW,229,3.0,9.0,98,0.04,,,0.54,0.000000,,2013-01-15 11:52:00,
2013-01-15 07:12:00,42.0,41.0,-100.00,SW,229,3.0,9.0,98,0.04,,,0.54,0.000000,,2013-01-15 12:12:00,
2013-01-15 07:22:00,42.0,41.0,-100.00,SW,229,3.0,9.0,98,0.04,,,0.54,0.000000,,2013-01-15 12:22:00,
2013-01-15 07:33:00,42.0,41.0,-100.00,SW,229,3.0,9.0,98,0.04,,,0.54,0.000000,,2013-01-15 12:33:00,
2013-01-15 07:43:00,42.0,41.0,-100.00,SW,229,3.0,9.0,98,0.04,,,0.54,0.000000,,2013-01-15 12:43:00,
2013-01-15 07:52:00,42.0,41.0,-100.00,South,188,2.0,8.0,98,0.02,,,0.56,0.000000,,2013-01-15 12:52:00,
2013-01-15 08:23:00,42.0,41.0,-100.00,South,188,2.0,8.0,98,0.02,,,0.56,0.000000,,2013-01-15 13:23:00,
2013-01-15 08:33:00,42.0,41.0,-100.00,South,188,2.0,8.0,98,0.02,,,0.56,0.000000,,2013-01-15 13:33:00,
2013-01-15 08:43:00,42.0,41.0,-100.00,South,188,2.0,8.0,98,0.02,,,0.56,0.000000,,2013-01-15 13:43:00,
2013-01-15 08:52:00,44.0,43.0,-100.00,SSW,201,1.0,6.0,98,0.01,,,0.57,5.000000,,2013-01-15 13:52:00,
2013-01-15 09:13:00,44.0,43.0,-100.00,SSW,201,1.0,6.0,98,0.01,,,0.57,5.000000,,2013-01-15 14:13:00,
2013-01-15 09:23:00,44.0,43.0,-100.00,SSW,201,1.0,6.0,98,0.01,,,0.57,5.000000,,2013-01-15 14:23:00,
2013-01-15 09:33:00,44.0,43.0,-100.00,SSW,201,1.0,6.0,98,0.01,,,0.57,5.000000,,2013-01-15 14:33:00,
2013-01-15 09:43:00,44.0,43.0,-100.00,SSW,201,1.0,6.0,98,0.01,,,0.57,5.000000,,2013-01-15 14:43:00,
2013-01-15 09:52:00,43.0,43.0,-100.00,ESE,122,2.0,8.0,99,0.05,,,0.62,14.000000,,2013-01-15 14:52:00,
2013-01-15 10:13:00,43.0,43.0,-100.00,ESE,122,2.0,8.0,99,0.05,,,0.62,14.000000,,2013-01-15 15:13:00,
2013-01-15 10:23:00,43.0,43.0,-100.00,ESE,122,2.0,8.0,99,0.05,,,0.62,14.000000,,2013-01-15 15:23:00,
2013-01-15 10:33:00,43.0,43.0,-100.00,ESE,122,2.0,8.0,99,0.05,,,0.62,14.000000,,2013-01-15 15:33:00,
2013-01-15 10:43:00,43.0,43.0,-100.00,ESE,122,2.0,8.0,99,0.05,,,0.62,14.000000,,2013-01-15 15:43:00,
2013-01-15 10:52:00,45.0,44.0,-100.00,SSE,153,2.0,9.0,98,0.02,,,0.64,37.000000,,2013-01-15 15:52:00,
2013-01-15 11:23:00,45.0,44.0,-100.00,SSE,153,2.0,9.0,98,0.02,,,0.64,37.000000,,2013-01-15 16:23:00,
2013-01-15 11:33:00,45.0,44.0,-100.00,SSE,153,2.0,9.0,98,0.02,,,0.64,37.000000,,2013-01-15 16:33:00,
2013-01-15 11:43:00,45.0,44.0,-100.00,SSE,153,2.0,9.0,98,0.02,,,0.64,37.000000,,2013-01-15 16:43:00,
2013-01-15 11:52:00,42.0,41.0,-100.00,NE,50,2.0,9.0,98,0.00,,,0.64,47.000000,,2013-01-15 16:52:00,
2013-01-15 12:13:00,42.0,41.0,-100.00,NE,50,2.0,9.0,98,0.00,,,0.64,47.000000,,2013-01-15 17:13:00,
2013-01-15 12:23:00,42.0,41.0,-100.00,NE,50,2.0,9.0,98,0.00,,,0.64,47.000000,,2013-01-15 17:23:00,
2013-01-15 12:33:00,42.0,41.0,-100.00,NE,50,2.0,9.0,98,0.00,,,0.64,47.000000,,2013-01-15 17:33:00,
2013-01-15 12:43:00,42.0,41.0,-100.00,NE,50,2.0,9.0,98,0.00,,,0.64,47.000000,,2013-01-15 17:43:00,
2013-01-15 12:52:00,42.0,41.0,-100.00,South,184,2.0,8.0,98,0.00,,,0.64,74.000000,,2013-01-15 17:52:00,
2013-01-15 13:13:00,42.0,41.0,-100.00,South,184,2.0,8.0,98,0.00,,,0.64,74.000000,,2013-01-15 18:13:00,
2013-01-15 13:23:00,42.0,41.0,-100.00,South,184,2.0,8.0,98,0.00,,,0.64,74.000000,,2013-01-15 18:23:00,
2013-01-15 13:33:00,42.0,41.0,-100.00,South,184,2.0,8.0,98,0.00,,,0.64,74.000000,,2013-01-15 18:33:00,
2013-01-15 13:43:00,42.0,41.0,-100.00,South,184,2.0,8.0,98,0.00,,,0.64,74.000000,,2013-01-15 18:43:00,
2013-01-15 13:52:00,42.0,41.0,-100.00,South,182,2.0,9.0,98,0.00,,,0.64,75.000000,,2013-01-15 18:52:00,
2013-01-15 14:13:00,42.0,41.0,-100.00,South,182,2.0,9.0,98,0.00,,,0.64,75.000000,,2013-01-15 19:13:00,
2013-01-15 14:23:00,42.0,41.0,-100.00,South,182,2.0,9.0,98,0.00,,,0.64,75.000000,,2013-01-15 19:23:00,
2013-01-15 14:33:00,42.0,41.0,-100.00,South,182,2.0,9.0,98,0.00,,,0.64,75.000000,,2013-01-15 19:33:00,
2013-01-15 14:43:00,42.0,41.0,-100.00,South,182,2.0,9.0,98,0.00,,,0.64,75.000000,,2013-01-15 19:43:00,
2013-01-15 14:52:00,42.0,41.0,-100.00,SW,228,2.0,7.0,98,0.00,,,0.60,59.000000,,2013-01-15 19:52:00,
2013-01-15 15:23:00,42.0,41.0,-100.00,SW,228,2.0,7.0,98,0.00,,,0.60,59.000000,,2013-01-15 20:23:00,
2013-01-15 15:33:00,42.0,41.0,-100.00,SW,228,2.0,7.0,98,0.00,,,0.60,59.000000,,2013-01-15 20:33:00,
2013-01-15 15:43:00,42.0,41.0,-100.00,SW,228,2.0,7.0,98,0.00,,,0.60,59.000000,,2013-01-15 20:43:00,
2013-01-15 15:52:00,42.0,41.0,-100.00,South,185,1.0,8.0,98,0.00,,,0.46,39.000000,,2013-01-15 20:52:00,
2013-01-15 16:13:00,42.0,41.0,-100.00,South,185,1.0,8.0,98,0.00,,,0.46,39.000000,,2013-01-15 21:13:00,
2013-01-15 16:23:00,42.0,41.0,-100.00,South,185,1.0,8.0,98,0.00,,,0.46,39.000000,,2013-01-15 21:23:00,
2013-01-15 16:34:00,42.0,41.0,-100.00,South,185,1.0,8.0,98,0.00,,,0.46,39.000000,,2013-01-15 21:34:00,
2013-01-15 16:43:00,42.0,41.0,-100.00,South,185,1.0,8.0,98,0.00,,,0.46,39.000000,,2013-01-15 21:43:00,
2013-01-15 16:52:00,43.0,42.0,-100.00,South,190,2.0,10.0,98,0.00,,,0.40,11.000000,,2013-01-15 21:52:00,
2013-01-15 17:12:00,43.0,42.0,-100.00,South,190,2.0,10.0,98,0.00,,,0.40,11.000000,,2013-01-15 22:12:00,
2013-01-15 17:23:00,43.0,42.0,-100.00,South,190,2.0,10.0,98,0.00,,,0.40,11.000000,,2013-01-15 22:23:00,
2013-01-15 17:33:00,43.0,42.0,-100.00,South,190,2.0,10.0,98,0.00,,,0.40,11.000000,,2013-01-15 22:33:00,
2013-01-15 17:43:00,43.0,42.0,-100.00,South,190,2.0,10.0,98,0.00,,,0.40,11.000000,,2013-01-15 22:43:00,
2013-01-15 17:52:00,42.0,42.0,-100.00,SW,227,1.0,5.0,99,0.00,,,0.39,0.000000,,2013-01-15 22:52:00,
2013-01-15 18:13:00,42.0,42.0,-100.00,SW,227,1.0,5.0,99,0.00,,,0.39,0.000000,,2013-01-15 23:13:00,
2013-01-15 18:23:00,42.0,42.0,-100.00,SW,227,1.0,5.0,99,0.00,,,0.39,0.000000,,2013-01-15 23:23:00,
2013-01-15 18:33:00,42.0,42.0,-100.00,SW,227,1.0,5.0,99,0.00,,,0.39,0.000000,,2013-01-15 23:33:00,
2013-01-15 18:43:00,42.0,42.0,-100.00,SW,227,1.0,5.0,99,0.00,,,0.39,0.000000,,2013-01-15 23:43:00,
2013-01-15 18:52:00,42.0,42.0,-100.00,SW,225,0.0,6.0,99,0.00,,,0.32,0.000000,,2013-01-15 23:52:00,
2013-01-15 19:23:00,42.0,42.0,-100.00,SW,225,0.0,6.0,99,0.00,,,0.32,0.000000,,2013-01-16 00:23:00,
2013-01-15 19:33:00,42.0,42.0,-100.00,SW,225,0.0,6.0,99,0.00,,,0.32,0.000000,,2013-01-16 00:33:00,
2013-01-15 19:43:00,42.0,42.0,-100.00,SW,225,0.0,6.0,99,0.00,,,0.32,0.000000,,2013-01-16 00:43:00,
2013-01-15 19:52:00,42.0,42.0,-100.00,SW,228,2.0,6.0,99,0.01,,,0.24,0.000000,,2013-01-16 00:52:00,
2013-01-15 20:12:00,42.0,42.0,-100.00,SW,228,2.0,6.0,99,0.01,,,0.24,0.000000,,2013-01-16 01:12:00,
2013-01-15 20:23:00,42.0,42.0,-100.00,SW,228,2.0,6.0,99,0.01,,,0.24,0.000000,,2013-01-16 01:23:00,
2013-01-15 20:33:00,42.0,42.0,-100.00,SW,228,2.0,6.0,99,0.01,,,0.24,0.000000,,2013-01-16 01:33:00,
2013-01-15 20:43:00,42.0,42.0,-100.00,SW,228,2.0,6.0,99,0.01,,,0.24,0.000000,,2013-01-16 01:43:00,
2013-01-15 20:52:00,44.0,44.0,-100.00,SW,226,2.0,7.0,99,0.00,,,0.15,0.000000,,2013-01-16 01:52:00,
2013-01-15 21:23:00,44.0,44.0,-100.00,SW,226,2.0,7.0,99,0.00,,,0.15,0.000000,,2013-01-16 02:23:00,
2013-01-15 21:33:00,44.0,44.0,-100.00,SW,226,2.0,7.0,99,0.00,,,0.15,0.000000,,2013-01-16 02:33:00,
2013-01-15 21:43:00,44.0,44.0,-100.00,SW,226,2.0,7.0,99,0.00,,,0.15,0.000000,,2013-01-16 02:43:00,
2013-01-15 21:52:00,43.0,43.0,-100.00,WSW,238,2.0,6.0,99,0.00,,,0.15,0.000000,,2013-01-16 02:52:00,
2013-01-15 22:12:00,43.0,43.0,-100.00,WSW,238,2.0,6.0,99,0.00,,,0.15,0.000000,,2013-01-16 03:12:00,
2013-01-15 22:22:00,43.0,43.0,-100.00,WSW,238,2.0,6.0,99,0.00,,,0.15,0.000000,,2013-01-16 03:22:00,
2013-01-15 22:33:00,43.0,43.0,-100.00,WSW,238,2.0,6.0,99,0.00,,,0.15,0.000000,,2013-01-16 03:33:00,
2013-01-15 22:43:00,43.0,43.0,-100.00,WSW,238,2.0,6.0,99,0.00,,,0.15,0.000000,,2013-01-16 03:43:00,
2013-01-15 22:52:00,43.0,43.0,-100.00,SW,228,1.0,8.0,99,0.00,,,0.15,0.000000,,2013-01-16 03:52:00,
2013-01-15 23:12:00,43.0,43.0,-100.00,SW,228,1.0,8.0,99,0.00,,,0.15,0.000000,,2013-01-16 04:12:00,
2013-01-15 23:22:00,43.0,43.0,-100.00,SW,228,1.0,8.0,99,0.00,,,0.15,0.000000,,2013-01-16 04:22:00,
2013-01-15 23:33:00,43.0,43.0,-100.00,SW,228,1.0,8.0,99,0.00,,,0.15,0.000000,,2013-01-16 04:33:00,
2013-01-15 23:42:00,43.0,43.0,-100.00,SW,228,1.0,8.0,99,0.00,,,0.15,0.000000,,2013-01-16 04:42:00,
2013-01-15 23:52:00,45.0,45.0,-100.00,WSW,258,4.0,8.0,99,0.01,,,0.16,0.000000,,2013-01-16 04:52:00,